Showing default

COSMOS 1695, 16143

Orbit data source: Space-Track

COSMOS 1695, 16143 is a payload satellite owned by GUKOS (CIS) in LEO that was launched on Wed, 09 Oct 1985 UTC via a TSIKLON-3 launch vehicle from the Plesetsk Missile And Space Complex (PKMTR). Payload-class satellites include a variety of spacecraft equipped with specific instruments for various scientific and technological missions. These include communications satellites like Starlink; space stations such as the ISS; scientific satellites like the Hubble; Earth observation satellites from companies like Planet Labs, Umbra, and HawkEye 360; GPS; miniature CubeSats for education and research; and military/defense satellites.

Loading next visibility...
Identifier
16143, 1985-094F
Orbit
LEO
Country
Flag of CISCIS
Related business
Manufacturer
NPO PM
Mission
Defense Communications
Bus & Motor
STRELA-3, Unknown motor
Mass
225 kg wet, 225 kg dry
Launch date (UTC)
1985-10-09 (40 years ago)
Launch vehicle
TSIKLON-3
Launch site
Plesetsk Missile And Space Complex (PKMTR)
Object type
Payload
Rocket body
Debris
Shape & HBR
Cyl, 0.8 m
Radar Cross Section
1.257 m², Medium (>0.1 m² and < 1m²)

Expand to show TLE details & history
Last TLE update: 10 hours ago

TLE from 10 hours ago
0 COSMOS 1695
1 16143U 85094F   25242.86962203  .00000001  00000-0 -54535-4 0  9990
2 16143  82.5984  93.1820 0008123  63.8797 308.5017 12.62894812838859
Epoch: 2025-08-30T20:52Z
TLE epoch observation values (Epoch: 2025-08-30T20:52:15.343Z)
Latitude
12.1653°
Longitude
162.41715°
Altitude
1,409.064 km
Speed
7.159 km/s
True Right ascension
06h 19m 06s
True Declination
12° 06' 02"
Sunlit
Object was in daylight at epoch
Visualization orbit readout
Latitude
Unknown
Longitude
Unknown
Altitude
Unknown
Speed
Unknown
Apparent Right ascension
Unknown
Apparent Declination
Unknown
Sunlit
N/A
Visualization observer readout
Local Sidereal Time
22:11:12
Azimuth
Unknown
Elevation
Unknown
Doppler factor
Unknown
Orbital elements
Apogee altitude
1,414.663 km
Perigee altitude
1,402.013 km
Semi-major axis
7,786.475 km
Eccentricity
0.00081
Inclination
82.5984°
RAAN
93.182°
Arg. of periapsis
63.8797°
True anomaly
308.42881°
Mean anomaly
308.5017°
Eccentric anomaly
308.46526°
Mean motion
3.15887 °/min
Orbital period
113.96 mins
BSTAR
-0.000054535
Loading maneuver chart data...
Computing Atmospheric mass density...
Loading historical data...
Loading historical data...
Loading historical data...
Loading historical data...
Loading historical data...
Loading historical data...
Loading historical data...

Documentation

Showing up to 5 results
|